Regional Weather Roundup
Issued by NWS State College, PA

Home | Current Version | Previous Version | Graphics & Text | Print | Product List | Glossary Off
Versions: 1 2 3 4 5 6 7 8 9 10 11 12 13 14 15 16 17 18 19 20 21 22 23 24 25 26 27 28 29 30 31 32 33 34 35 36 37 38 39 40 41 42 43 44 45 46 47 48 49 50

000
ASUS41 KCTP 260103
RWRCTP

REGIONAL WEATHER ROUNDUP
NATIONAL WEATHER SERVICE STATE COLLEGE PA
900 PM EDT THU MAY 25 2017

Note: "fair" indicates few or no clouds below 12,000 feet with no
significant weather and/or obstructions to visibility.

* = STATION THAT DOES NOT REPORT PRECIPITATION /E.G. RAIN...SNOW...ETC/
    THUNDER OR FOG.

PAZ002>004-007>009-013>016-020>023-029>032-260200-
WESTERN PENNSYLVANIA

CITY           SKY/WX    TMP DP  RH WIND       PRES   REMARKS
ERIE           LGT RAIN  57  55  93 SW3       29.52R
MEADVILLE      PTCLDY    57  55  93 W5        29.53R
FRANKLIN*      CLOUDY    57  54  88 SW6       29.54R
NEW CASTLE     CLOUDY    59  57  93 CALM      29.55R
BEAVER COUNTY  CLOUDY    57  54  88 CALM      29.54R
BUTLER*        CLOUDY    59  54  82 W6        29.54R
PITTSBURGH INT CLOUDY    59  57  93 SW6       29.54R
PITTSBURGH     CLOUDY    60  52  74 W12       29.54R
INDIANA*       CLOUDY    59  55  88 CALM      29.56R
LATROBE        CLOUDY    59  55  88 W9        29.55R
WASHINGTON CO* CLOUDY    57  54  88 W3        29.58R
$$

PAZ004>006-010>012-017>019-024>028-033>037-041-042-045-046-049>053-260200-
CENTRAL PENNSYLVANIA

CITY           SKY/WX    TMP DP  RH WIND       PRES   REMARKS
BRADFORD       PTCLDY    56  55  97 CALM      29.52S
DUBOIS         CLOUDY    57  50  77 W12       29.51R
CLEARFIELD     LGT RAIN  58  58 100 SW3       29.52S
JOHNSTOWN      CLOUDY    57  54  89 W17       29.54R
ALTOONA        MOCLDY    57  56  96 CALM      29.52R
STATE COLLEGE  LGT RAIN  57  55  94 CALM      29.50F
WILLIAMSPORT   MOCLDY    60  59  96 SE3       29.48F
SELINSGROVE    PTCLDY    60  59  96 NW3       29.49F
FT INDIANTOWN  CLOUDY    61  61 100 CALM        N/A
CAPITAL CITY   CLOUDY    64  58  80 NW5       29.48S
HARRISBURG     CLOUDY    63  60  90 NW5       29.47F
YORK           CLOUDY    62  60  93 NW5       29.48S
$$

PAZ038>040-043-044-047-048-054-055-060>062-067>071-260200-
EASTERN PENNSYLVANIA

CITY           SKY/WX    TMP DP  RH WIND       PRES   REMARKS
SCRANTON       CLOUDY    61  57  87 VRB3      29.52R
MOUNT POCONO   LGT RAIN  54  54 100 E10       29.52S VSB 3/4
ALLENTOWN      CLOUDY    61  57  87 E6        29.48F
QUAKERTOWN*    CLOUDY    59  59 100 N5        29.48F
READING        MOCLDY    62  61  96 N6        29.47F
LANCASTER      CLOUDY    63  62  97 E6        29.47S
COATESVILLE    CLOUDY    61  61 100 N7        29.48F
POTTSTOWN      CLOUDY    59  58  96 NE3       29.48F
BLUE BELL      CLOUDY    55  55 100 CALM      29.48S
DOYLESTOWN     CLOUDY    58  58 100 NE6       29.45F
WILLOW GROVE   NOT AVBL
NORTH PHILA    CLOUDY    61  58  90 NE10      29.47F
PHILADELPHIA   CLOUDY    61  58  90 NE9       29.46F
$$




USA.gov is the U.S. government's official web portal to all federal, state and local government web resources and services.